Location: Cluj-Napoca
(46.7712°N, 23.6236°E)
Time: 22:58:49
(UTC+02:00)

ISS - Pass Details

Date: 23 January 2020
Orbit: 415 x 423 km, 51.6° (Epoch: 28 February)

Event Time Altitude Azimuth Distance (km) Brightness Sun altitude
Rises 18:30:48 0° 226° (SW) 2,370 1.2 -13.0°
Reaches altitude 10° 18:32:57 10° 220° (SW) 1,508 -0.1 -13.3°
Maximum altitude 18:36:12 46° 146° (SE) 576 -3.3 -13.9°
Enters shadow 18:37:37 28° 89° (E) 837 -2.8 -14.1°
